Flag for Argentina Weather past 2 weeks in Salta, Salta, Argentina

Now
41 °F

Drizzle. Mostly cloudy.


Feels Like: 39 °F
Forecast: N/A
Wind: 3 mph from Northeast

Location: Salta Aerodrome

Current Time: Jul 23, 2014 at 8:22:09 PM

Latest Report: Jul 23, 2014 at 8:00 PM


Visibility: 4 mi

Pressure: 30.21 "Hg

Humidity: 81%

Dew point: 36 °F

Location of SaltaLocation

Historic Weather in Salta — Graph

°F

Salta temperature yesterday

Maximum temperature yesterday: 68 °F (at 1:00 PM)
Minimum temperature yesterday: 41 °F (at 7:00 AM)
Average temperature yesterday: 52 °F

Past Weeks' High & Low Weather Summary

 TemperatureHumidityPressure
High86 °F (Jul 21, 4:00 PM)100% (Jul 9, 4:00 AM)30.51 "Hg (Jul 9, 4:00 AM)
Low32 °F (Jul 11, 8:00 AM)11% (Jul 21, 4:00 PM)29.74 "Hg (Jul 21, 4:00 PM)
Average54 °F71%30.12 "Hg
* Reported Jul 8 7:00 PM — Jul 23 7:00 PM, Salta, Weather by CustomWeather, © 2014

Note: Actual official high and low records may vary slightly from our data, if they occured in-between our weather recording intervals... More about our weather records

Advertising

Salta weather history for previous 24 hours

 ConditionsComfort  
Time TempWeatherWind HumidityBarometerVisibility
7:00 PM
Jul 23
41 °FDrizzle. Mostly cloudy.8 mph87%30.15 "Hg4 mi
6:00 PM43 °FMostly cloudy.6 mph81%30.09 "HgN/A
4:00 PM43 °FMore clouds than sun.6 mph81%30.04 "HgN/A
3:00 PM41 °FMore clouds than sun.7 mph93%30.04 "HgN/A
2:00 PM41 °FDrizzle. Low clouds.7 mph87%30.04 "Hg2 mi
12:00 PM43 °FPartly sunny.10 mph81%30.07 "Hg4 mi
11:00 AM43 °FMostly cloudy.14 mph87%30.07 "Hg5 mi
10:00 AM45 °FBroken clouds.8 mph93%30.04 "Hg5 mi
8:00 AM46 °FDrizzle. Fog.5 mph100%30.04 "Hg1 mi
7:00 AM48 °FDrizzle. Overcast.8 mph94%30.01 "Hg2 mi
6:00 AM50 °FPassing clouds.5 mph76%29.98 "HgN/A
2:00 AM55 °FMostly cloudy.7 mph63%29.98 "HgN/A
1:00 AM55 °FMostly cloudy.7 mph63%29.98 "HgN/A
12:00 AM55 °FMostly cloudy.7 mph67%29.98 "HgN/A
11:00 PM
Jul 22
57 °FPartly cloudy.9 mph63%29.98 "HgN/A
10:00 PM57 °FPartly cloudy.6 mph63%29.98 "HgN/A
9:00 PM59 °FPartly cloudy.8 mph63%29.95 "HgN/A
Weather by CustomWeather, © 2014

See weather overviewHow to use our weather pages